Location: ???????
(55.4362°N, 38.1183°E)
Time: 02:13:07
(UTC+00:00)

Cosmos 968 Rocket - Pass Details

Date: 17 June 2021
Orbit: 741 x 770 km, 74.0° (Epoch: 26 July)

Event Time Altitude Azimuth Distance (km) Brightness Sun altitude
Rises 20:01:28 0° 330° (NNW) 3,192 8.8 -9.0°
Reaches altitude 10° 20:03:53 10° 325° (NW) 2,265 7.4 -9.1°
Maximum altitude 20:08:49 50° 251° (WSW) 945 4.0 -9.3°
Enters shadow 20:13:29 11° 178° (S) 2,164 5.2 -9.5°
